UAL1055 KCOS-KDEN

Flight info

Callsign UAL1055
Flight time 0h 31m
Altitude 13000
Route ADANE V389 LUFSE JEFEL FQF
Aircraft A320/M-SDE3FGHIRWY/LB1

Departure

Time 2026-05-06 03:55
Airport City of Colorado Springs Municipal Airport (KCOS)

Arrival

Time 2026-05-06 04:27
Airport Denver International Airport (KDEN)
Time Latitude Longitude Altitude Speed Heading
2026-05-06 03:16 38.79837 -104.70156 6145 ft 0 kts 102°
2026-05-06 03:32 38.79840 -104.70174 6144 ft 4 kts 103°
2026-05-06 03:33 38.79845 -104.70202 6144 ft 4 kts 97°
2026-05-06 03:33 38.79842 -104.70232 6144 ft 4 kts 48°
2026-05-06 03:33 38.79821 -104.70250 6144 ft 4 kts 14°
2026-05-06 03:33 38.79802 -104.70254 6144 ft 0 kts
2026-05-06 03:35 38.79877 -104.70251 6144 ft 17 kts 359°
2026-05-06 03:36 38.79977 -104.70253 6145 ft 16 kts
2026-05-06 03:36 38.80066 -104.70230 6148 ft 11 kts 52°
2026-05-06 03:36 38.80076 -104.70105 6148 ft 17 kts 94°
2026-05-06 03:36 38.80075 -104.70080 6148 ft 0 kts 93°
2026-05-06 03:37 38.80074 -104.70064 6148 ft 6 kts 91°
2026-05-06 03:37 38.80074 -104.69973 6148 ft 13 kts 92°
2026-05-06 03:38 38.80030 -104.69923 6147 ft 0 kts 163°
2026-05-06 03:38 38.80014 -104.69890 6147 ft 9 kts 99°
2026-05-06 03:38 38.80016 -104.69851 6147 ft 2 kts 88°
2026-05-06 03:38 38.80016 -104.69844 6147 ft 0 kts 90°
2026-05-06 03:44 38.80016 -104.69843 6147 ft 0 kts 88°
2026-05-06 03:45 38.80037 -104.69845 6147 ft 4 kts 295°
2026-05-06 03:45 38.80034 -104.69860 6147 ft 0 kts 258°
2026-05-06 03:46 38.80033 -104.69866 6147 ft 3 kts 259°
2026-05-06 03:46 38.80057 -104.69911 6148 ft 8 kts 314°
2026-05-06 03:46 38.80074 -104.69980 6148 ft 12 kts 269°
2026-05-06 03:47 38.80099 -104.70081 6148 ft 12 kts 340°
2026-05-06 03:47 38.80220 -104.70084 6150 ft 20 kts 359°
2026-05-06 03:47 38.80294 -104.70055 6151 ft 4 kts 107°
2026-05-06 03:47 38.80279 -104.69965 6151 ft 16 kts 90°
2026-05-06 03:48 38.80280 -104.69810 6151 ft 18 kts 90°
2026-05-06 03:48 38.80283 -104.69640 6151 ft 20 kts 89°
2026-05-06 03:48 38.80281 -104.69457 6151 ft 21 kts 90°
2026-05-06 03:48 38.80281 -104.69264 6151 ft 22 kts 90°
2026-05-06 03:49 38.80279 -104.69059 6151 ft 23 kts 90°
2026-05-06 03:49 38.80278 -104.68867 6151 ft 14 kts 89°
2026-05-06 03:49 38.80225 -104.68788 6151 ft 19 kts 174°
2026-05-06 03:49 38.80052 -104.68788 6148 ft 27 kts 179°
2026-05-06 03:50 38.79857 -104.68788 6145 ft 29 kts 180°
2026-05-06 03:50 38.79647 -104.68789 6141 ft 30 kts 180°
2026-05-06 03:50 38.79461 -104.68788 6138 ft 28 kts 179°
2026-05-06 03:50 38.79261 -104.68787 6135 ft 30 kts 180°
2026-05-06 03:51 38.79053 -104.68786 6132 ft 30 kts 178°
2026-05-06 03:51 38.78844 -104.68790 6128 ft 26 kts 182°
2026-05-06 03:51 38.78670 -104.68791 6126 ft 26 kts 180°
2026-05-06 03:51 38.78480 -104.68792 6123 ft 28 kts 180°
2026-05-06 03:52 38.78280 -104.68792 6119 ft 29 kts 179°
2026-05-06 03:52 38.78107 -104.68792 6117 ft 20 kts 180°
2026-05-06 03:52 38.78004 -104.68772 6107 ft 12 kts 134°
2026-05-06 03:52 38.77983 -104.68765 6104 ft 10 kts 207°
2026-05-06 03:53 38.77907 -104.68726 6110 ft 15 kts 98°
2026-05-06 03:53 38.77938 -104.68641 6106 ft 11 kts 69°
2026-05-06 03:53 38.77963 -104.68579 6114 ft 5 kts 350°
2026-05-06 03:53 38.77979 -104.68580 6114 ft 0 kts
2026-05-06 03:54 38.78038 -104.68579 6105 ft 34 kts
2026-05-06 03:54 38.78521 -104.68577 6123 ft 102 kts
2026-05-06 03:55 38.79413 -104.68577 6138 ft 153 kts
2026-05-06 03:55 38.80547 -104.68554 6515 ft 166 kts
2026-05-06 03:55 38.81695 -104.68534 7268 ft 165 kts
2026-05-06 03:55 38.82907 -104.68305 7668 ft 187 kts 14°
2026-05-06 03:56 38.84242 -104.67823 8078 ft 211 kts 17°
2026-05-06 03:56 38.85726 -104.67253 8540 ft 232 kts 18°
2026-05-06 03:56 38.87203 -104.66240 9036 ft 251 kts 45°
2026-05-06 03:56 38.88182 -104.64325 9387 ft 269 kts 73°
2026-05-06 03:57 38.88374 -104.61897 9867 ft 281 kts 94°
2026-05-06 03:57 38.88187 -104.59348 10286 ft 298 kts 97°
2026-05-06 03:57 38.87951 -104.56637 10493 ft 321 kts 97°
2026-05-06 03:57 38.87711 -104.53682 10648 ft 344 kts 94°
2026-05-06 03:58 38.88020 -104.50578 11038 ft 359 kts 72°
2026-05-06 03:58 38.88969 -104.47568 11593 ft 367 kts 67°
2026-05-06 03:58 38.90129 -104.44622 12159 ft 374 kts 57°
2026-05-06 03:58 38.91671 -104.41902 12703 ft 380 kts 47°
2026-05-06 03:59 38.93735 -104.39800 12961 ft 380 kts 25°
2026-05-06 03:59 38.96224 -104.38735 13012 ft 376 kts
2026-05-06 03:59 38.98819 -104.38462 13022 ft 373 kts 357°
2026-05-06 03:59 39.01405 -104.38591 13018 ft 372 kts 354°
2026-05-06 04:00 39.03949 -104.38823 13018 ft 372 kts 354°
2026-05-06 04:00 39.06536 -104.39001 13022 ft 372 kts 355°
2026-05-06 04:00 39.09127 -104.39061 13027 ft 373 kts 358°
2026-05-06 04:00 39.11723 -104.39011 13030 ft 373 kts 359°
2026-05-06 04:01 39.14313 -104.38887 13024 ft 372 kts
2026-05-06 04:01 39.16900 -104.38718 13031 ft 373 kts
2026-05-06 04:01 39.19469 -104.38178 13018 ft 375 kts 12°
2026-05-06 04:01 39.21948 -104.37142 13022 ft 376 kts 22°
2026-05-06 04:02 39.24320 -104.35718 13031 ft 377 kts 26°
2026-05-06 04:02 39.26704 -104.34330 13037 ft 374 kts 14°
2026-05-06 04:02 39.29231 -104.33986 13034 ft 370 kts 353°
2026-05-06 04:02 39.31694 -104.34805 13037 ft 365 kts 333°
2026-05-06 04:03 39.33908 -104.36394 12915 ft 365 kts 327°
2026-05-06 04:03 39.36071 -104.38064 12548 ft 351 kts 327°
2026-05-06 04:03 39.38081 -104.39629 12419 ft 325 kts 327°
2026-05-06 04:03 39.39942 -104.41082 12291 ft 302 kts 327°
2026-05-06 04:04 39.41680 -104.42445 12171 ft 283 kts 327°
2026-05-06 04:04 39.43312 -104.43724 12031 ft 265 kts 327°
2026-05-06 04:04 39.44848 -104.44932 11777 ft 254 kts 327°
2026-05-06 04:04 39.46344 -104.46116 11316 ft 253 kts 327°
2026-05-06 04:05 39.47830 -104.47311 10744 ft 256 kts 327°
2026-05-06 04:05 39.49325 -104.48532 10174 ft 258 kts 327°
2026-05-06 04:05 39.50846 -104.49793 9594 ft 261 kts 327°
2026-05-06 04:05 39.52371 -104.51079 9132 ft 259 kts 328°
2026-05-06 04:06 39.53830 -104.52350 9032 ft 248 kts 327°
2026-05-06 04:06 39.55242 -104.53611 9045 ft 247 kts 327°
2026-05-06 04:06 39.56652 -104.54873 9039 ft 248 kts 327°
2026-05-06 04:06 39.58072 -104.56152 9031 ft 247 kts 327°
2026-05-06 04:07 39.59487 -104.57421 9035 ft 247 kts 327°
2026-05-06 04:07 39.60900 -104.58697 9036 ft 247 kts 327°
2026-05-06 04:07 39.62312 -104.59966 9025 ft 247 kts 327°
2026-05-06 04:07 39.63709 -104.61222 9033 ft 248 kts 327°
2026-05-06 04:08 39.65111 -104.62486 8882 ft 244 kts 328°
2026-05-06 04:08 39.66475 -104.63709 8773 ft 233 kts 326°
2026-05-06 04:08 39.67780 -104.64861 8635 ft 222 kts 327°
2026-05-06 04:08 39.69062 -104.65877 8502 ft 209 kts 340°
2026-05-06 04:09 39.70455 -104.66203 8287 ft 200 kts
2026-05-06 04:09 39.71814 -104.66182 8159 ft 191 kts
2026-05-06 04:09 39.73108 -104.66170 8007 ft 180 kts
2026-05-06 04:09 39.74291 -104.66157 7772 ft 168 kts
2026-05-06 04:10 39.75452 -104.66143 7434 ft 166 kts 360°
2026-05-06 04:10 39.76596 -104.66129 7087 ft 162 kts 358°
2026-05-06 04:10 39.77700 -104.66116 7088 ft 159 kts 359°
2026-05-06 04:10 39.78813 -104.66103 7055 ft 159 kts 358°
2026-05-06 04:11 39.79921 -104.66091 7045 ft 159 kts 359°
2026-05-06 04:11 39.81029 -104.66077 7049 ft 159 kts 358°
2026-05-06 04:11 39.82169 -104.66064 7139 ft 170 kts 359°
2026-05-06 04:11 39.83413 -104.66050 7296 ft 188 kts
2026-05-06 04:12 39.84711 -104.65561 7412 ft 205 kts 36°
2026-05-06 04:12 39.85590 -104.64093 7539 ft 218 kts 72°
2026-05-06 04:12 39.85887 -104.62090 7630 ft 235 kts 85°
2026-05-06 04:12 39.86039 -104.59887 7759 ft 254 kts 87°
2026-05-06 04:13 39.86178 -104.57517 8008 ft 268 kts 87°
2026-05-06 04:13 39.86313 -104.55063 8372 ft 277 kts 87°
2026-05-06 04:13 39.86435 -104.52544 8904 ft 279 kts 87°
2026-05-06 04:13 39.86537 -104.50034 9033 ft 277 kts 87°
2026-05-06 04:14 39.86598 -104.47530 9052 ft 277 kts 94°
2026-05-06 04:14 39.86062 -104.45185 9059 ft 278 kts 120°
2026-05-06 04:14 39.84732 -104.43379 9054 ft 280 kts 147°
2026-05-06 04:14 39.82890 -104.42548 9055 ft 285 kts 172°
2026-05-06 04:15 39.80905 -104.42397 9055 ft 286 kts 176°
2026-05-06 04:15 39.78916 -104.42342 9054 ft 286 kts 177°
2026-05-06 04:15 39.76921 -104.42297 9048 ft 287 kts 177°
2026-05-06 04:15 39.74925 -104.42254 9044 ft 287 kts 177°
2026-05-06 04:16 39.72931 -104.42212 9047 ft 287 kts 177°
2026-05-06 04:16 39.70936 -104.42173 9041 ft 287 kts 177°
2026-05-06 04:16 39.68945 -104.42135 9052 ft 282 kts 177°
2026-05-06 04:16 39.66996 -104.42097 9056 ft 283 kts 177°
2026-05-06 04:17 39.65038 -104.42060 9055 ft 286 kts 177°
2026-05-06 04:17 39.63049 -104.42020 9053 ft 286 kts 177°
2026-05-06 04:17 39.61061 -104.42164 9046 ft 288 kts 192°
2026-05-06 04:17 39.59278 -104.43302 8979 ft 285 kts 219°
2026-05-06 04:18 39.58102 -104.45302 8852 ft 278 kts 246°
2026-05-06 04:18 39.57705 -104.47711 8730 ft 271 kts 265°
2026-05-06 04:18 39.57598 -104.50121 8600 ft 265 kts 266°
2026-05-06 04:18 39.57536 -104.52459 8469 ft 254 kts 267°
2026-05-06 04:19 39.57486 -104.54703 8353 ft 245 kts 267°
2026-05-06 04:19 39.57443 -104.56860 8219 ft 234 kts 267°
2026-05-06 04:19 39.57409 -104.58880 8137 ft 219 kts 267°
2026-05-06 04:19 39.57381 -104.60787 8034 ft 205 kts 267°
2026-05-06 04:20 39.57357 -104.62564 7981 ft 189 kts 267°
2026-05-06 04:20 39.57571 -104.64163 7960 ft 175 kts 300°
2026-05-06 04:20 39.58382 -104.65277 7994 ft 171 kts 322°
2026-05-06 04:20 39.59414 -104.66010 7986 ft 170 kts 341°
2026-05-06 04:21 39.60564 -104.66313 7988 ft 169 kts 359°
2026-05-06 04:21 39.61738 -104.66306 7992 ft 169 kts
2026-05-06 04:21 39.62911 -104.66293 7994 ft 169 kts
2026-05-06 04:21 39.64068 -104.66278 7992 ft 169 kts
2026-05-06 04:22 39.65241 -104.66264 7988 ft 169 kts
2026-05-06 04:22 39.66414 -104.66250 7990 ft 169 kts
2026-05-06 04:22 39.67588 -104.66237 7989 ft 169 kts
2026-05-06 04:23 39.69934 -104.66209 7893 ft 170 kts
2026-05-06 04:23 39.71110 -104.66194 7736 ft 165 kts
2026-05-06 04:23 39.72254 -104.66181 7511 ft 164 kts 360°
2026-05-06 04:23 39.73387 -104.66168 7304 ft 162 kts 359°
2026-05-06 04:24 39.74508 -104.66154 7086 ft 160 kts 359°
2026-05-06 04:24 39.75601 -104.66141 6882 ft 158 kts 359°
2026-05-06 04:24 39.76664 -104.66129 6677 ft 149 kts 359°
2026-05-06 04:24 39.77690 -104.66115 6467 ft 146 kts 359°
2026-05-06 04:25 39.78701 -104.66103 6286 ft 145 kts 359°
2026-05-06 04:25 39.79704 -104.66091 6095 ft 145 kts 360°
2026-05-06 04:25 39.80712 -104.66079 5911 ft 145 kts 359°
2026-05-06 04:25 39.81716 -104.66070 5716 ft 144 kts 359°
2026-05-06 04:26 39.82718 -104.66058 5517 ft 144 kts 359°
2026-05-06 04:26 39.83657 -104.66044 5415 ft 117 kts
2026-05-06 04:26 39.84311 -104.66037 5408 ft 77 kts
2026-05-06 04:26 39.84802 -104.66038 5404 ft 65 kts 359°
2026-05-06 04:27 39.85126 -104.66060 5400 ft 25 kts 340°
2026-05-06 04:27 39.85277 -104.66140 5401 ft 19 kts 331°
2026-05-06 04:27 39.85403 -104.66227 5398 ft 22 kts 345°
2026-05-06 04:27 39.85552 -104.66236 5396 ft 21 kts 352°
2026-05-06 04:28 39.85709 -104.66235 5386 ft 24 kts 359°
2026-05-06 04:28 39.85872 -104.66233 5388 ft 20 kts
2026-05-06 04:28 39.85987 -104.66231 5387 ft 14 kts 358°
2026-05-06 04:28 39.86005 -104.66322 5383 ft 12 kts 235°
2026-05-06 04:29 39.85983 -104.66339 5385 ft 2 kts 202°
2026-05-06 04:29 39.85929 -104.66353 5385 ft 10 kts 179°
2026-05-06 04:29 39.85857 -104.66349 5382 ft 10 kts 178°
2026-05-06 04:29 39.85769 -104.66350 5385 ft 19 kts 181°
2026-05-06 04:30 39.85684 -104.66413 5384 ft 13 kts 276°
2026-05-06 04:30 39.85684 -104.66539 5378 ft 15 kts 253°
2026-05-06 04:30 39.85659 -104.66668 5381 ft 15 kts 271°
2026-05-06 04:30 39.85674 -104.66793 5381 ft 13 kts 309°
2026-05-06 04:31 39.85728 -104.66880 5380 ft 12 kts 277°
2026-05-06 04:31 39.85727 -104.66989 5377 ft 12 kts 266°
2026-05-06 04:31 39.85725 -104.67098 5378 ft 15 kts 270°
2026-05-06 04:31 39.85732 -104.67260 5380 ft 19 kts 272°
2026-05-06 04:32 39.85730 -104.67433 5379 ft 20 kts 272°
2026-05-06 04:32 39.85733 -104.67615 5379 ft 20 kts 271°
2026-05-06 04:32 39.85734 -104.67787 5376 ft 19 kts 272°
2026-05-06 04:32 39.85737 -104.67952 5378 ft 18 kts 269°
2026-05-06 04:33 39.85737 -104.68107 5380 ft 17 kts 269°
2026-05-06 04:33 39.85785 -104.68190 5378 ft 11 kts
2026-05-06 04:33 39.85858 -104.68195 5379 ft 10 kts
2026-05-06 04:33 39.85921 -104.68196 5376 ft 9 kts 360°
2026-05-06 04:34 39.85984 -104.68196 5379 ft 11 kts
2026-05-06 04:34 39.86016 -104.68123 5376 ft 12 kts 90°
2026-05-06 04:34 39.86015 -104.68013 5378 ft 12 kts 91°
2026-05-06 04:34 39.86015 -104.67980 5380 ft 0 kts 91°
2026-05-06 04:35 39.86015 -104.67964 5380 ft 3 kts 89°
2026-05-06 04:35 39.86015 -104.67935 5376 ft 3 kts 88°
2026-05-06 04:36 39.86008 -104.67922 5376 ft 3 kts 147°
2026-05-06 04:36 39.85973 -104.67902 5380 ft 5 kts 179°
2026-05-06 04:36 39.85950 -104.67902 5376 ft 2 kts 180°
2026-05-06 04:36 39.85939 -104.67902 5380 ft 0 kts 179°